FW9660 Weather Reports


Display with metric or nautical units.
time (UTC)temp
F
wind
direction
speed
MPH
gust
MPH
rain 1hr
in
rain 24hr
in
rain mn
in
humidity
%
barometer
mb
20260507114057 61 269 3.0 6.0 0.00 0.00 0.00 90 1017.8
20260507113558 61 236 3.0 6.0 0.00 0.00 0.00 90 1017.9
20260507113055 61 261 3.0 6.0 0.00 0.00 0.00 90 1017.9
20260507112557 61 255 3.0 7.0 0.00 0.00 0.00 90 1018.0
20260507112058 61 241 3.0 7.0 0.00 0.00 0.00 90 1018.1
20260507111559 61 225 3.0 7.0 0.00 0.00 0.00 90 1018.1
20260507111056 61 265 3.0 7.0 0.00 0.00 0.00 90 1018.2
20260507110600 62 265 3.0 6.0 0.00 0.00 0.00 91 1018.2
20260507110057 62 252 4.0 6.0 0.00 0.00 0.00 91 1018.2
20260507105558 62 245 3.0 5.0 0.00 0.00 0.00 91 1018.3
20260507105057 62 236 3.0 6.0 0.00 0.00 0.00 91 1018.3
20260507104601 62 261 3.0 6.0 0.00 0.00 0.00 91 1018.3
20260507104101 62 249 3.0 6.0 0.00 0.00 0.00 91 1018.3
20260507103600 63 265 3.0 6.0 0.00 0.00 0.00 92 1018.5
20260507103058 63 252 3.0 6.0 0.00 0.00 0.00 92 1018.5
20260507102559 63 265 3.0 5.0 0.00 0.00 0.00 92 1018.5
20260507102100 63 257 3.0 6.0 0.00 0.00 0.00 92 1018.5
20260507101554 63 257 3.0 6.0 0.00 0.00 0.00 92 1018.5
20260507101100 63 230 2.0 6.0 0.00 0.00 0.00 92 1018.5
20260507100557 63 265 3.0 6.0 0.00 0.00 0.00 93 1018.6
20260507100059 64 254 3.0 6.0 0.00 0.00 0.00 93 1018.7
20260507095557 64 232 3.0 6.0 0.00 0.00 0.00 93 1018.6
20260507095057 64 261 3.0 6.0 0.00 0.00 0.00 93 1018.6
20260507094557 64 259 3.0 6.0 0.00 0.00 0.00 93 1018.7
20260507094101 64 279 3.0 6.0 0.00 0.00 0.00 93 1018.7
20260507093557 64 252 3.0 6.0 0.00 0.00 0.00 93 1018.7
20260507093056 64 249 3.0 6.0 0.00 0.00 0.00 93 1018.7
20260507092558 63 252 3.0 6.0 0.00 0.00 0.00 93 1018.7
20260507092057 63 236 3.0 6.0 0.00 0.00 0.00 93 1018.8
20260507091558 63 261 3.0 4.0 0.00 0.00 0.00 93 1018.8
20260507091059 63 265 3.0 6.0 0.00 0.00 0.00 93 1018.8
20260507090558 63 242 3.0 6.0 0.00 0.00 0.00 93 1018.8
20260507090104 62 265 3.0 6.0 0.00 0.00 0.00 93 1018.9
20260507085557 62 257 3.0 6.0 0.00 0.00 0.00 93 1019.0
20260507085057 62 265 3.0 6.0 0.00 0.00 0.00 93 1019.0
20260507084557 62 261 3.0 6.0 0.00 0.00 0.00 93 1018.9
20260507084057 62 252 3.0 6.0 0.00 0.00 0.00 93 1018.9
20260507083600 63 243 3.0 6.0 0.00 0.00 0.00 93 1018.9
20260507083058 63 255 3.0 6.0 0.00 0.00 0.00 93 1019.0
20260507082559 63 259 3.0 6.0 0.00 0.00 0.00 93 1018.9
20260507082056 63 245 3.0 5.0 0.00 0.00 0.00 93 1019.0
20260507081557 63 255 3.0 4.0 0.00 0.00 0.00 93 1018.9
20260507081101 64 265 2.0 6.0 0.00 0.00 0.00 93 1018.9
20260507080559 64 259 3.0 6.0 0.00 0.00 0.00 93 1018.9
20260507080120 64 255 3.0 6.0 0.00 0.00 0.00 94 1018.9
20260507075559 65 255 3.0 6.0 0.00 0.00 0.00 94 1019.1
20260507075057 65 241 3.0 6.0 0.00 0.00 0.00 94 1019.0
20260507074611 65 255 3.0 5.0 0.00 0.00 0.00 94 1019.0
20260507074057 65 254 2.0 4.0 0.00 0.00 0.00 94 1019.0
20260507073601 65 250 2.0 4.0 0.00 0.00 0.00 94 1018.9
20260507073111 65 259 2.0 4.0 0.00 0.00 0.00 94 1018.9
20260507072559 64 252 2.0 4.0 0.00 0.00 0.00 94 1018.8
20260507072057 64 216 2.0 3.0 0.00 0.00 0.00 94 1018.8
20260507071604 64 257 2.0 4.0 0.00 0.00 0.00 94 1018.6
20260507071057 64 245 2.0 4.0 0.00 0.00 0.00 93 1018.5
20260507070558 64 254 2.0 4.0 0.00 0.00 0.00 93 1018.4
20260507070110 64 255 2.0 4.0 0.00 0.00 0.00 93 1018.3
20260507065601 64 236 2.0 4.0 0.00 0.00 0.00 93 1018.2
20260507065057 64 268 2.0 4.0 0.00 0.00 0.00 93 1018.1
20260507064631 64 259 2.0 4.0 0.00 0.00 0.00 93 1018.1
20260507064101 65 259 2.0 3.0 0.00 0.00 0.00 93 1018.0
20260507063558 65 249 2.0 3.0 0.00 0.00 0.00 93 1018.0
20260507063117 65 265 2.0 3.0 0.00 0.00 0.00 93 1017.9
20260507062557 65 257 2.0 4.0 0.00 0.00 0.00 93 1017.9
20260507062057 65 259 2.0 4.0 0.00 0.00 0.00 92 1017.8
20260507061559 66 257 2.0 3.0 0.00 0.00 0.00 93 1017.6
20260507061056 66 232 2.0 3.0 0.00 0.00 0.00 92 1017.6
20260507060559 66 221 2.0 3.0 0.00 0.00 0.00 93 1017.5
20260507060115 67 245 2.0 3.0 0.00 0.00 0.00 93 1017.5
20260507055557 67 257 2.0 3.0 0.00 0.00 0.00 93 1017.4
20260507055056 67 249 2.0 3.0 0.00 0.00 0.00 93 1017.4
20260507054609 67 257 1.0 3.0 0.00 0.00 0.00 92 1017.3
20260507054058 67 232 1.0 3.0 0.00 0.00 0.00 92 1017.2
20260507053557 68 238 1.0 3.0 0.00 0.00 0.00 92 1017.1
20260507053106 68 227 1.0 3.0 0.00 0.00 0.00 92 1017.1
20260507052557 68 238 1.0 3.0 0.00 0.00 0.00 92 1017.1
20260507052057 68 249 1.0 3.0 0.00 0.00 0.00 92 1017.0
20260507051607 68 265 1.0 3.0 0.00 0.00 0.00 92 1016.9
20260507051056 69 0 1.0 2.0 0.00 0.00 0.00 92 1016.8
20260507050557 69 232 0.0 2.0 0.00 0.00 0.00 92 1016.8
20260507050057 69 265 1.0 3.0 0.00 0.00 0.00 91 1016.8
20260507045557 70 232 1.0 4.0 0.00 0.00 0.00 91 1016.8
20260507045057 70 146 1.0 4.0 0.00 0.00 0.00 91 1016.6
20260507044600 70 158 2.0 4.0 0.00 0.00 0.00 91 1016.6
20260507044056 71 133 1.0 4.0 0.00 0.00 0.00 91 1016.6
20260507043556 71 120 2.0 4.0 0.00 0.00 0.00 91 1016.5
20260507043100 71 120 2.0 4.0 0.00 0.00 0.00 91 1016.5
20260507042559 71 128 3.0 4.0 0.00 0.00 0.00 91 1016.4
20260507042056 71 117 2.0 8.0 0.00 0.00 0.00 91 1016.5
20260507041559 72 120 3.0 8.0 0.00 0.00 0.00 91 1016.5
20260507041057 72 118 3.0 7.0 0.00 0.00 0.00 90 1016.4
20260507040558 72 121 3.0 7.0 0.00 0.00 0.00 90 1016.3
20260507040057 72 117 3.0 7.0 0.00 0.00 0.00 90 1016.3
20260507035557 72 131 3.0 7.0 0.00 0.00 0.00 90 1016.2
20260507035058 72 123 3.0 7.0 0.00 0.00 0.00 90 1016.2
20260507034600 73 93 3.0 7.0 0.00 0.00 0.00 90 1016.2
20260507034056 73 162 4.0 7.0 0.00 0.00 0.00 89 1016.1
20260507033557 73 88 2.0 7.0 0.00 0.00 0.00 90 1016.1
20260507033101 73 120 2.0 8.0 0.00 0.00 0.00 89 1016.1
20260507032558 73 105 2.0 8.0 0.00 0.00 0.00 89 1016.1
20260507032056 74 130 3.0 8.0 0.00 0.00 0.00 88 1016.1
20260507031558 74 93 3.0 6.0 0.00 0.00 0.00 88 1016.2
20260507031057 74 26 2.0 6.0 0.00 0.00 0.00 89 1016.2
20260507030556 74 93 2.0 6.0 0.00 0.00 0.00 88 1016.1
20260507030058 74 85 2.0 6.0 0.00 0.00 0.00 88 1016.0
20260507025556 74 88 2.0 6.0 0.00 0.00 0.00 88 1015.9
20260507025057 74 115 2.0 6.0 0.00 0.00 0.00 88 1015.9
20260507024601 74 46 1.0 5.0 0.00 0.00 0.00 88 1015.9
20260507024058 74 56 2.0 6.0 0.00 0.00 0.00 88 1015.9
20260507023557 74 93 1.0 6.0 0.00 0.00 0.00 88 1015.9
20260507023100 74 117 1.0 6.0 0.00 0.00 0.00 87 1015.9
20260507022557 74 111 2.0 7.0 0.00 0.00 0.00 87 1015.9
20260507022057 74 41 2.0 8.0 0.00 0.00 0.00 88 1015.9
20260507021555 75 120 4.0 8.0 0.00 0.00 0.00 87 1015.9
20260507021057 75 55 3.0 7.0 0.00 0.00 0.00 87 1015.9
20260507020557 75 76 2.0 9.0 0.00 0.00 0.00 87 1015.9
20260507020118 76 11 3.0 9.0 0.00 0.00 0.00 86 1015.9
20260507015557 76 78 4.0 9.0 0.00 0.00 0.00 85 1015.8
20260507015057 77 51 3.0 9.0 0.00 0.00 0.00 85 1015.8
20260507014601 77 83 2.0 8.0 0.00 0.00 0.00 83 1015.8
20260507014057 78 93 2.0 8.0 0.00 0.00 0.00 85 1015.8
20260507013557 78 34 3.0 8.0 0.00 0.00 0.00 83 1015.8
20260507013057 79 108 2.0 6.0 0.00 0.00 0.00 83 1015.8
20260507012559 78 47 2.0 6.0 0.00 0.00 0.00 81 1015.7
20260507012057 78 110 2.0 6.0 0.00 0.00 0.00 81 1015.7
20260507011554 78 17 2.0 7.0 0.00 0.00 0.00 81 1015.7
20260507011057 77 109 2.0 7.0 0.00 0.00 0.00 75 1015.7
20260507010558 77 128 2.0 7.0 0.00 0.00 0.00 82 1015.8
20260507010110 77 83 2.0 7.0 0.00 0.00 0.00 84 1015.7
20260507005557 77 121 2.0 6.0 0.00 0.00 0.00 85 1015.7
20260507005057 77 102 2.0 6.0 0.00 0.00 0.00 84 1015.8
20260507004556 77 0 1.0 6.0 0.00 0.00 0.00 84 1015.8
20260507004057 77 26 2.0 6.0 0.00 0.00 0.00 82 1015.9
20260507003557 78 39 2.0 6.0 0.00 0.00 0.00 81 1015.9
20260507003058 79 38 2.0 7.0 0.00 0.00 0.00 81 1015.8
20260507002557 80 70 3.0 7.0 0.00 0.00 0.00 80 1015.8
20260507002057 80 80 1.0 4.0 0.00 0.00 0.00 76 1015.9
20260507001603 80 9 1.0 4.0 0.00 0.00 0.00 71 1015.9
20260507001056 80 9 1.0 4.0 0.00 0.00 0.00 77 1015.9
20260507000559 80 80 1.0 4.0 0.00 0.00 0.00 77 1016.0
20260507000056 80 64 2.0 4.0 0.00 0.00 0.00 63 1016.0
20260506235557 79 9 0.0 4.0 0.00 0.00 0.00 66 1016.0
20260506235057 79 0 1.0 4.0 0.00 0.00 0.00 66 1016.1
20260506234600 79 144 1.0 4.0 0.00 0.00 0.00 70 1016.3
20260506234057 79 132 2.0 6.0 0.00 0.00 0.00 73 1016.2
20260506233557 78 139 2.0 6.0 0.00 0.00 0.00 74 1016.4
20260506233100 79 56 1.0 6.0 0.00 0.00 0.00 79 1016.4
20260506232600 79 82 2.0 7.0 0.00 0.00 0.00 79 1016.6
20260506232057 79 98 2.0 8.0 0.00 0.00 0.00 80 1016.6
20260506231609 80 83 3.0 8.0 0.00 0.00 0.00 80 1016.6
20260506231057 80 22 1.0 7.0 0.00 0.00 0.00 79 1016.7
20260506230556 79 113 3.0 7.0 0.00 0.00 0.00 71 1016.6
20260506230111 79 17 2.0 8.0 0.00 0.00 0.00 76 1016.6
20260506225556 79 51 2.0 8.0 0.00 0.00 0.00 76 1016.6
20260506225056 79 106 3.0 8.0 0.00 0.00 0.00 76 1016.8
20260506224602 79 72 3.0 9.0 0.00 0.00 0.00 78 1016.8
20260506224056 78 51 2.0 9.0 0.00 0.00 0.00 82 1016.6
20260506223556 78 113 4.0 8.0 0.00 0.00 0.00 80 1016.7
20260506223100 78 126 3.0 11.0 0.00 0.00 0.00 80 1016.8
20260506222557 78 111 2.0 11.0 0.00 0.00 0.00 85 1016.7
20260506222102 78 93 3.0 11.0 0.00 0.00 0.00 84 1016.8
20260506221631 78 30 3.0 8.0 0.00 0.00 0.00 84 1016.8
20260506221056 78 32 3.0 8.0 0.00 0.00 0.00 83 1016.8
20260506220557 78 59 2.0 10.0 0.00 0.00 0.00 84 1017.0
20260506220122 78 51 3.0 10.0 0.00 0.00 0.00 85 1017.1
20260506215556 78 123 3.0 9.0 0.00 0.00 0.00 84 1017.1
20260506215056 77 107 3.0 9.0 0.00 0.00 0.00 86 1017.2
20260506214601 77 149 3.0 9.0 0.00 0.00 0.00 85 1017.3
20260506214056 77 46 2.0 10.0 0.00 0.00 0.00 85 1017.5
20260506213556 76 9 4.0 10.0 0.00 0.00 0.00 85 1017.3
20260506213110 77 126 3.0 8.0 0.00 0.00 0.00 84 1017.3
20260506212556 77 85 3.0 8.0 0.00 0.00 0.00 86 1017.2
20260506212059 77 9 3.0 8.0 0.00 0.00 0.00 84 1017.2
20260506211559 77 346 3.0 9.0 0.00 0.00 0.00 84 1017.3
20260506211057 77 117 3.0 9.0 0.00 0.00 0.00 85 1017.3
20260506210557 77 151 3.0 9.0 0.00 0.00 0.00 84 1017.3
20260506210105 78 124 2.0 7.0 0.00 0.00 0.00 83 1017.2
20260506205559 77 132 2.0 7.0 0.00 0.00 0.00 83 1017.2
20260506205058 78 68 2.0 7.0 0.00 0.00 0.00 82 1017.3
20260506204607 78 66 3.0 9.0 0.00 0.00 0.00 80 1017.4
20260506204058 79 38 3.0 9.0 0.00 0.00 0.00 80 1017.5
20260506203557 79 341 3.0 9.0 0.00 0.00 0.00 79 1017.5
20260506203057 78 9 3.0 9.0 0.00 0.00 0.00 79 1017.3
20260506202557 78 106 3.0 9.0 0.00 0.00 0.00 80 1017.4
20260506202058 78 47 2.0 6.0 0.00 0.00 0.00 78 1017.4
20260506201557 78 108 2.0 7.0 0.00 0.00 0.00 79 1017.4
20260506201057 78 221 2.0 7.0 0.00 0.00 0.00 77 1017.5
20260506200558 78 0 3.0 8.0 0.00 0.00 0.00 78 1017.5
20260506200059 78 61 3.0 8.0 0.00 0.00 0.00 81 1017.5
20260506195557 78 67 3.0 8.0 0.00 0.00 0.00 81 1017.4
20260506195057 78 86 2.0 7.0 0.00 0.00 0.00 80 1017.3
20260506194608 77 59 3.0 7.0 0.00 0.00 0.00 79 1017.4
20260506194058 77 28 3.0 8.0 0.00 0.00 0.00 79 1017.5
20260506193558 77 325 3.0 8.0 0.00 0.00 0.00 83 1017.3
20260506193116 76 20 2.0 6.0 0.00 0.00 0.00 81 1017.3
20260506192559 76 342 1.0 6.0 0.00 0.00 0.00 83 1017.5
20260506192058 75 54 2.0 6.0 0.00 0.00 0.00 83 1017.4
20260506191617 75 43 3.0 6.0 0.00 0.00 0.00 82 1017.3
20260506191058 75 17 3.0 7.0 0.00 0.00 0.00 82 1017.3
20260506190558 75 61 3.0 7.0 0.00 0.00 0.00 83 1017.4
20260506190058 76 39 3.0 8.0 0.00 0.00 0.00 83 1017.4
20260506185557 76 9 2.0 8.0 0.00 0.00 0.00 82 1017.4
20260506185057 76 9 3.0 8.0 0.00 0.00 0.00 81 1017.5
20260506184622 76 46 2.0 8.0 0.00 0.00 0.00 80 1017.5
20260506184058 76 31 2.0 8.0 0.00 0.00 0.00 81 1017.4
20260506183601 76 41 2.0 5.0 0.00 0.00 0.00 82 1017.4
20260506183104 76 51 2.0 5.0 0.00 0.00 0.00 81 1017.3
20260506182558 76 64 2.0 4.0 0.00 0.00 0.00 82 1017.2
20260506182057 75 137 2.0 6.0 0.00 0.00 0.00 82 1017.1
20260506181559 75 205 2.0 6.0 0.00 0.00 0.00 82 1017.1
20260506181057 74 102 2.0 5.0 0.00 0.00 0.00 82 1017.0
20260506180558 74 72 2.0 4.0 0.00 0.00 0.00 83 1017.1
20260506180058 74 99 2.0 4.0 0.00 0.00 0.00 82 1017.1
20260506175557 74 80 2.0 4.0 0.00 0.00 0.00 82 1016.9
20260506175058 74 80 1.0 4.0 0.00 0.00 0.00 83 1017.0
20260506174555 74 19 1.0 4.0 0.00 0.00 0.00 83 1017.0
20260506174057 74 9 2.0 6.0 0.00 0.00 0.00 82 1016.8
20260506173558 74 93 2.0 6.0 0.00 0.00 0.00 84 1016.8
20260506173056 73 26 2.0 4.0 0.00 0.00 0.00 85 1016.8
20260506172557 72 9 1.0 3.0 0.00 0.00 0.00 87 1016.6
20260506172058 71 9 0.0 3.0 0.00 0.00 0.00 87 1016.5
20260506171607 71 93 1.0 4.0 0.00 0.00 0.00 89 1016.5
20260506171058 70 309 2.0 5.0 0.00 0.00 0.00 91 1016.5
20260506170558 69 219 3.0 5.0 0.00 0.00 0.00 90 1016.4
20260506170059 68 232 3.0 5.0 0.00 0.00 0.00 90 1016.4
20260506165557 68 224 3.0 7.0 0.00 0.00 0.00 90 1016.4
20260506165058 67 211 4.0 7.0 0.00 0.00 0.00 90 1016.3
20260506164557 67 203 4.0 7.0 0.00 0.00 0.00 90 1016.3
20260506164057 66 211 4.0 6.0 0.00 0.00 0.00 90 1016.3
20260506163557 66 209 4.0 8.0 0.00 0.00 0.00 90 1016.1
20260506163107 65 214 4.0 8.0 0.00 0.00 0.00 90 1016.0
20260506162559 65 202 5.0 8.0 0.00 0.00 0.00 90 1015.8
20260506162100 65 210 5.0 8.0 0.00 0.00 0.00 90 1015.8
20260506161557 64 216 5.0 8.0 0.00 0.00 0.00 90 1015.8
20260506161057 64 202 5.0 8.0 0.00 0.00 0.00 90 1015.7
20260506160558 64 200 5.0 8.0 0.00 0.00 0.00 91 1015.7
20260506160108 64 202 5.0 8.0 0.00 0.00 0.00 91 1015.7
20260506155557 64 218 5.0 8.0 0.00 0.00 0.00 91 1015.5
20260506155057 64 212 5.0 8.0 0.00 0.00 0.00 91 1015.4
20260506154558 64 227 6.0 8.0 0.00 0.00 0.00 92 1015.3
20260506154100 64 221 5.0 8.0 0.00 0.00 0.00 92 1015.3
20260506153558 64 221 5.0 7.0 0.00 0.00 0.00 92 1015.3
20260506153057 64 209 5.0 7.0 0.00 0.00 0.00 92 1015.4
20260506152557 64 231 4.0 7.0 0.00 0.00 0.00 92 1015.4
20260506152057 64 227 4.0 7.0 0.00 0.00 0.00 92 1015.4
20260506151558 64 221 5.0 7.0 0.00 0.00 0.00 92 1015.4
20260506151057 64 218 5.0 7.0 0.00 0.00 0.00 92 1015.2
20260506150557 64 223 5.0 7.0 0.00 0.00 0.00 92 1015.2
20260506150056 64 214 4.0 7.0 0.00 0.00 0.00 92 1015.1
20260506145557 64 208 4.0 7.0 0.00 0.00 0.00 92 1015.1
20260506145058 64 223 4.0 7.0 0.00 0.00 0.00 92 1015.1
20260506144603 64 207 4.0 7.0 0.00 0.00 0.00 92 1015.1
20260506144058 65 214 5.0 7.0 0.00 0.00 0.00 92 1015.2
20260506143558 65 219 4.0 7.0 0.00 0.00 0.00 93 1015.1
20260506143057 65 215 5.0 7.0 0.00 0.00 0.00 93 1015.1
20260506142558 65 221 4.0 7.0 0.00 0.00 0.00 93 1015.1
20260506142059 65 221 4.0 7.0 0.00 0.00 0.00 93 1015.1
20260506141600 65 221 4.0 7.0 0.00 0.00 0.00 93 1015.1
20260506141057 65 203 5.0 8.0 0.00 0.00 0.00 93 1015.1
20260506140556 65 213 5.0 8.0 0.00 0.00 0.00 93 1015.0
20260506140059 65 205 4.0 8.0 0.00 0.00 0.00 93 1015.1
20260506135557 65 214 5.0 8.0 0.00 0.00 0.00 94 1015.1
20260506135057 65 215 5.0 8.0 0.00 0.00 0.00 94 1015.0
20260506134557 65 210 5.0 8.0 0.00 0.00 0.00 94 1015.1
20260506134058 65 219 5.0 8.0 0.00 0.00 0.00 94 1015.2
20260506133558 65 224 5.0 8.0 0.00 0.00 0.00 94 1015.2
20260506133056 65 213 5.0 8.0 0.00 0.00 0.00 94 1015.2
20260506132557 65 207 5.0 8.0 0.00 0.00 0.00 94 1015.3
20260506132059 65 178 4.0 8.0 0.00 0.00 0.00 94 1015.4
20260506131607 65 208 4.0 7.0 0.00 0.00 0.00 94 1015.4
20260506131100 65 214 5.0 7.0 0.00 0.00 0.00 94 1015.5
20260506130558 66 203 4.0 6.0 0.00 0.00 0.00 94 1015.6
20260506130057 65 198 5.0 6.0 0.00 0.00 0.00 94 1015.5
20260506125557 65 208 4.0 6.0 0.00 0.00 0.00 94 1015.5
20260506125058 66 210 4.0 6.0 0.00 0.00 0.00 94 1015.5
20260506124557 65 210 4.0 6.0 0.00 0.00 0.00 94 1015.4
20260506124057 65 212 4.0 6.0 0.00 0.00 0.00 94 1015.5
20260506123557 65 211 4.0 6.0 0.00 0.00 0.00 94 1015.3
20260506123058 65 212 5.0 6.0 0.00 0.00 0.00 94 1015.3
20260506122557 65 203 5.0 6.0 0.00 0.00 0.00 93 1015.3
20260506122057 65 211 4.0 6.0 0.00 0.00 0.00 93 1015.4
20260506121600 65 211 4.0 6.0 0.00 0.00 0.00 93 1015.5
20260506121057 66 209 3.0 5.0 0.00 0.00 0.00 94 1015.5
20260506120602 66 217 3.0 5.0 0.00 0.00 0.00 94 1015.5
20260506115558 66 218 4.0 5.0 0.00 0.00 0.00 93 1015.5
20260506115058 66 221 4.0 5.0 0.00 0.00 0.00 93 1015.6
20260506114559 66 207 3.0 5.0 0.00 0.00 0.00 93 1015.8